#timestamp,LO_Frequency,Hit 
1504350015.3,286046998.7,N
1504350035.6,286047000.0,N
1504350055.4,286047000.3,N
1504350075.6,286047008.8,N
1504350095.5,286047000.0,N
1504350115.3,286046997.9,N
1504350135.2,286046999.6,N
1504350155.8,286047000.7,N
1504350175.6,286046998.2,N
1504350195.5,286047000.8,N
1504350215.3,286047002.6,N
1504350235.1,286046995.2,N
1504350255.8,286046995.4,N
1504350275.7,286046996.3,N
1504350295.5,286046995.8,N
1504350315.3,286046997.5,N
1504350335.2,286046991.7,N
1504350355.0,286046991.5,N
1504350355.9,286046991.5,N
1504350375.7,286046996.4,N
1504350395.6,286046996.1,N
1504350415.4,286047000.3,N
1504350435.2,286046996.5,N
1504350455.1,286046990.3,N
1504350456.0,286046990.3,N
1504350475.8,286046984.2,P
1504350495.7,286046994.8,N
1504350515.5,286046994.8,N
1504350535.3,286046992.7,N
1504350555.1,286046993.8,N
1504350575.9,286046995.4,N
1504350595.7,286046998.4,N
1504350615.5,286046991.8,N
1504350635.4,286046990.2,N
1504350655.2,286046987.0,P
1504350675.0,286046996.7,N
1504350675.9,286046996.7,N
1504350695.8,286046997.0,N
1504350715.6,286046998.5,N
1504350735.4,286047007.6,N
1504350755.3,286047005.9,N
1504350775.1,286047005.8,N
1504350795.8,286047002.8,N
1504350815.7,286047000.3,N
1504350835.5,286046993.6,N
1504350855.3,286046993.1,N
1504350875.2,286046994.7,N
1504350895.9,286047000.8,N
1504350915.7,286046998.7,N
1504350935.6,286046999.0,N
1504350955.4,286047000.9,N
1504350975.2,286046993.6,N
1504350995.0,286046996.6,N
1504350995.9,286046996.6,N
1504351015.8,286047001.2,N
1504351035.6,286046996.6,N
1504351055.4,286046991.2,N
1504351075.3,286046990.9,N
1504351095.1,286046995.0,N
1504351115.8,286047008.2,N
1504351135.7,286047005.3,N
1504351155.5,286047001.0,N
1504351175.3,286046999.7,N
1504351195.2,286046993.7,N
1504351215.9,286046997.5,N
1504351235.7,286047001.0,N
1504351255.5,286047003.5,N
1504351275.4,286047013.6,N
1504351295.2,286047005.4,N
1504351315.0,286047004.3,N
1504351315.9,286047004.3,N
1504351335.8,286047002.4,N
1504351355.6,286047003.8,N
1504351375.4,286047001.0,N
1504351395.3,286046993.5,N
1504351415.1,286046997.3,N
1504351435.8,286047001.2,N
1504351455.7,286047002.3,N
1504351475.5,286047008.5,N
1504351495.3,286047010.4,N
1504351515.2,286047006.2,N
1504351535.9,286047003.1,N
1504351555.7,286046998.1,N
1504351575.6,286047008.7,N
1504351595.4,286047001.3,N
1504351615.2,286047007.4,N
1504351635.0,286047004.0,N
1504351635.9,286047004.0,N
1504351655.8,286047002.7,N
1504351675.6,286047001.2,N
1504351695.4,286046995.5,N
1504351715.3,286046995.3,N
1504351735.1,286046994.1,N
1504351755.8,286046996.4,N
1504351775.7,286047003.2,N
1504351795.5,286047003.6,N
1504351815.3,286047000.9,N
1504351835.2,286046998.7,N
1504351855.9,286046998.3,N
1504351875.7,286046999.0,N
1504351895.6,286047003.4,N
1504351915.4,286047003.6,N
1504351935.2,286047005.6,N
1504351955.0,286047003.3,N
1504351956.0,286047003.3,N
1504351975.8,286047001.7,N
1504351995.6,286047001.4,N
1504352015.4,286047001.8,N
1504352035.3,286047005.2,N
1504352055.1,286046998.2,N
1504352075.8,286047000.1,N
1504352095.7,286046999.7,N
1504352115.5,286046998.9,N
1504352135.3,286046995.7,N
1504352155.2,286046995.6,N
1504352175.9,286046999.1,N
1504352195.7,286047000.8,N
1504352215.6,286046996.8,N
1504352235.4,286046998.6,N
1504352255.2,286046998.6,N
1504352275.1,286047000.4,N
1504352276.0,286047000.4,N
1504352295.8,286047003.9,N
1504352315.6,286047006.8,N
1504352335.5,286047020.3,P
1504352355.3,286047015.4,N
1504352375.1,286047004.6,N
1504352395.9,286046997.0,N
1504352415.7,286046992.9,N
1504352435.5,286046992.6,N
1504352455.3,286046996.2,N
1504352475.2,286046996.6,N
1504352495.0,286047000.4,N
1504352495.9,286047000.4,N
1504352515.7,286047002.7,N
1504352535.6,286047001.4,N
1504352555.4,286047004.1,N
1504352575.2,286047008.8,N
1504352595.1,286047001.0,N
1504352596.0,286047001.0,N
1504352615.8,286047004.7,N
1504352635.6,286047002.2,N
1504352655.5,286046997.4,N
1504352675.3,286046994.5,N
1504352695.1,286046997.7,N
1504352715.9,286046997.7,N
1504352735.7,286046999.5,N
1504352755.5,286046998.9,N
1504352775.3,286046999.4,N
1504352795.2,286047001.1,N
1504352815.0,286047002.2,N
1504352815.9,286047002.2,N
1504352835.7,286046998.1,N
1504352855.6,286046995.2,N
1504352875.4,286046996.9,N
1504352895.2,286046994.5,N
1504352915.1,286046996.3,N
1504352916.0,286046996.3,N
1504352935.8,286046997.2,N
1504352955.6,286046991.0,N
1504352975.5,286046989.1,P
1504352995.3,286046990.6,N
1504353015.1,286046990.6,N
1504353035.9,286046993.9,N
1504353055.7,286046997.9,N
1504353075.5,286046997.3,N
1504353095.4,286046996.6,N
1504353115.2,286046997.2,N
1504353135.0,286046996.0,N
1504353135.9,286046996.0,N
1504353155.8,286046996.5,N
1504353175.6,286046994.8,N
1504353195.4,286046992.6,N
1504353215.3,286046993.1,N
1504353235.1,286046989.7,P
1504353236.0,286046989.7,P
1504353255.8,286046990.7,P
1504353275.7,286046994.4,N
1504353295.5,286046990.9,P
1504353315.3,286047004.1,P
1504353335.2,286047001.6,N
1504353355.9,286047000.8,N
1504353375.7,286047004.4,N
1504353395.6,286047006.9,N
1504353415.4,286047003.8,N
1504353435.2,286047002.0,N
1504353455.1,286047002.2,N
1504353456.0,286047002.2,N
1504353475.8,286047001.0,N
1504353495.6,286046999.4,N
1504353515.4,286046996.1,N
1504353535.3,286046997.8,N
1504353555.1,286046999.0,N
1504353575.8,286046998.5,N
1504353595.7,286046998.7,N
